Wind_Speed
6 7 7 7 8 8 6 6 7 8 9 10 10 10 9 8 7 6 6 6 6 6 6 6 5 3 2 2 3 3 4 5 5 5 5 6 6 6 6 6 6 6 6 6 6 6 6 6 7
3 4 5 6 8 5 3 3 5 7 8 9 9 10 10 9 9 7 5 4 4 4 4 4 3 2 2 2 3 3 4 5 5 5 5 5 5 5 5 5 5 5 5 5 5 5 4 4 4
2 1 2 4 4 2 3 2 1 4 5 6 6 7 7 7 7 5 3 2 2 3 3 3 2 2 3 3 4 4 4 5 5 5 5 5 4 5 5 5 6 6 7 7 7 7 6 6 5
5 3 2 1 3 3 3 3 2 1 1 2 2 3 4 4 4 2 2 1 2 2 2 3 3 3 3 4 4 5 5 5 5 5 5 5 5 5 6 6 7 8 9 9 9 9 9 9 8
8 7 5 4 5 4 4 4 4 3 3 1 0 1 2 3 2 1 1 2 2 3 3 3 4 4 4 4 5 5 5 5 6 6 6 6 7 7 8 8 9 10 11 11 11 11 11 11 11
11 9 7 8 8 6 5 5 5 6 5 3 1 0 1 2 2 1 1 2 2 3 3 4 5 5 6 6 6 6 7 7 8 8 8 9 9 10 10 11 12 12 13 13 13 13 13 14 14
14 12 11 11 11 9 7 7 6 6 6 4 2 1 1 0 1 1 2 3 4 5 6 8 9 9 9 10 10 10 10 10 11 11 12 12 13 13 14 14 15 15 15 16 16 16 16 17 17
16 14 13 13 13 12 9 8 7 6 5 4 3 2 2 2 3 4 5 7 8 10 11 12 14 15 15 15 15 15 15 15 15 15 16 17 17 18 18 19 19 19 19 19 20 20 20 20 21
18 16 16 16 15 14 11 10 8 6 5 5 4 3 4 6 7 8 10 12 14 15 17 18 19 20 20 20 20 20 19 19 20 20 20 21 22 22 23 23 23 23 23 24 24 24 24 24 24
19 19 20 19 17 15 13 11 10 7 7 7 7 7 7 9 11 13 15 17 18 20 21 22 23 24 24 24 24 24 24 24 24 25 25 25 25 26 26 27 28 28 29 29 29 29 28 28 28
21 22 22 20 19 18 16 14 13 11 10 10 10 11 12 14 16 18 19 21 23 24 24 25 25 26 26 27 27 27 27 28 28 29 29 30 30 30 31 31 32 33 33 34 34 34 33 33 33
22 23 23 22 21 20 19 18 16 15 15 14 14 14 16 19 21 22 24 26 27 27 28 28 28 28 28 28 28 29 29 30 31 31 32 33 33 34 34 34 35 36 37 38 38 37 37 36 35
25 25 24 24 23 22 22 21 20 19 19 18 18 18 20 23 25 27 28 30 31 31 32 32 32 31 30 29 29 29 30 30 31 32 33 34 34 35 35 35 35 37 39 40 40 39 39 39 38
28 26 25 26 25 24 24 24 23 23 21 21 21 23 25 27 29 31 32 33 34 35 35 35 34 32 31 30 29 29 29 30 31 32 33 33 33 33 34 34 35 36 37 38 39 40 41 41 40
30 28 27 29 27 27 26 27 28 26 25 25 26 27 29 31 33 34 35 35 36 37 37 36 35 33 31 30 29 28 28 29 29 30 30 31 31 31 31 32 33 35 36 37 37 39 39 39 40
33 31 30 32 30 29 28 29 32 29 29 29 30 32 33 35 36 36 36 37 37 38 37 37 35 34 32 31 29 28 28 29 28 28 27 27 28 29 30 31 31 33 35 36 37 38 39 40 40
32 33 33 35 33 32 31 34 35 32 33 34 34 35 36 37 37 37 36 37 37 37 37 36 36 35 34 32 30 28 27 27 25 24 24 24 25 26 27 28 30 32 34 36 37 38 39 40 41
28 31 35 36 37 35 35 38 38 37 38 38 38 37 37 36 35 35 36 36 36 37 37 36 36 35 33 31 29 27 26 24 22 21 21 21 22 23 25 27 29 31 33 35 37 39 40 41 41
26 29 31 36 38 37 39 40 41 41 40 39 37 36 34 34 34 35 35 35 36 37 38 38 37 35 33 30 27 26 24 22 20 18 18 18 19 20 22 24 27 29 32 34 36 38 40 41 42
20 22 24 31 34 35 37 37 38 38 36 35 34 33 32 33 33 34 34 36 37 38 38 38 36 35 32 28 27 25 22 19 17 17 16 16 17 18 19 22 25 27 30 32 35 38 39 40 42
13 15 19 24 27 28 30 28 30 32 32 32 32 31 31 31 32 34 35 37 38 38 38 37 35 33 30 28 26 24 21 19 18 18 19 19 19 20 21 23 25 27 29 31 33 36 38 40 41
11 16 18 20 20 19 23 20 23 28 28 30 30 30 30 31 32 34 36 38 38 37 36 36 34 33 30 28 26 24 22 22 22 22 23 23 23 23 23 24 26 28 29 31 32 34 36 38 40
13 15 16 17 17 17 18 16 18 26 25 27 28 29 28 29 31 32 34 34 34 35 34 34 34 33 31 28 26 26 25 26 26 26 27 27 26 26 26 26 27 28 30 31 32 33 35 36 38
12 12 13 13 13 12 14 12 15 20 20 21 22 22 23 24 26 28 30 31 33 34 35 36 35 34 32 29 29 29 30 30 30 30 29 29 28 28 27 27 28 29 30 32 33 33 34 35 36
11 10 10 10 10 11 15 13 17 17 16 18 19 20 21 23 25 28 30 32 34 35 36 36 36 36 35 34 34 34 35 34 34 33 32 31 30 29 28 27 28 30 31 33 33 33 34 34 34
11 11 11 11 12 13 18 17 19 17 18 19 20 21 23 24 27 29 31 33 35 37 38 39 39 39 39 39 39 39 38 37 36 34 33 32 31 29 28 27 28 29 31 33 33 34 34 34 33
10 10 12 14 14 15 14 20 20 19 21 22 23 25 26 28 30 32 34 35 37 38 40 41 42 43 43 43 42 41 40 38 37 35 34 33 32 31 29 28 28 29 31 32 34 34 34 34 32
10 11 12 13 14 15 15 18 23 21 22 25 27 29 31 34 36 37 38 40 41 42 44 45 46 47 47 46 45 44 43 41 40 39 37 36 34 33 31 30 29 30 31 32 33 34 34 33 32
13 13 14 15 17 19 18 22 26 26 27 30 32 34 37 39 41 42 44 45 46 47 49 49 50 51 51 51 50 49 48 46 45 43 41 39 37 35 33 32 31 31 31 32 33 34 34 33 31
15 16 18 19 21 23 24 28 27 29 31 33 36 38 40 42 44 46 47 48 49 51 52 53 54 55 56 56 56 55 53 52 50 49 46 44 41 39 36 34 33 32 31 32 33 34 34 33 31
Wind_Direction
91 85 79 69 65 66 79 100 106 103 100 97 96 96 98 98 98 103 106 110 114 109 101 95 90 81 59 21 6 7 15 23 29 36 41 44 46 48 50 49 49 48 44 43 45 47 47 47 47
93 83 73 60 57 39 50 98 120 116 109 103 101 99 97 95 96 91 89 95 96 91 83 74 59 42 5 339 332 338 348 357 2 7 13 21 27 28 26 23 19 13 6 2 360 3 7 11 16
184 143 75 53 44 5 350 1 102 116 112 109 104 104 103 99 94 87 80 62 59 61 53 32 358 332 321 316 316 323 331 337 342 347 352 356 0 2 1 356 351 346 342 339 336 332 331 332 332
222 221 237 312 299 316 319 327 331 345 87 98 102 105 105 101 94 83 48 8 358 9 8 350 328 310 302 302 307 313 319 324 327 329 331 332 333 335 336 335 335 335 334 332 329 326 323 319 317
232 230 232 240 251 274 290 299 304 304 292 300 303 88 100 98 86 61 9 329 326 325 322 312 302 295 292 293 297 303 306 308 310 311 312 312 313 316 318 318 321 323 324 325 324 320 318 315 311
237 233 227 235 244 250 262 279 288 287 279 271 256 217 127 108 93 81 24 337 328 320 311 302 300 296 294 293 295 296 296 295 297 298 299 299 300 303 306 307 309 311 313 314 314 312 311 308 305
239 235 232 237 244 242 252 266 280 285 271 260 250 247 263 77 8 12 341 331 325 320 314 308 304 301 298 297 295 294 293 291 291 292 292 293 295 297 298 299 300 302 303 303 304 303 303 302 299
243 240 240 241 244 243 247 258 272 276 267 252 239 247 278 305 309 316 316 314 313 311 309 306 302 299 297 295 293 291 289 288 287 288 289 291 292 293 293 293 294 294 294 294 294 294 295 295 294
246 243 242 241 241 242 243 253 259 262 257 250 246 260 282 298 302 305 307 307 307 306 305 302 301 298 296 294 292 290 288 286 285 285 286 287 288 288 288 289 289 289 289 288 287 287 287 288 287
245 243 242 243 242 241 239 246 250 252 252 250 256 268 281 291 297 300 302 304 304 304 302 301 300 299 296 294 291 289 287 285 285 285 284 284 284 284 284 284 284 284 284 283 283 283 282 281 281
244 244 248 246 244 242 239 240 245 250 251 253 263 276 287 292 296 299 302 304 304 304 303 303 301 299 297 294 292 289 287 286 285 284 284 283 282 282 281 280 280 280 280 280 280 280 280 279 278
243 246 248 247 246 244 242 241 244 247 252 259 270 281 289 294 297 299 302 303 304 303 303 302 300 298 296 294 292 290 289 287 286 285 284 283 282 281 281 280 279 279 279 278 278 278 279 279 278
240 244 247 247 246 246 246 246 247 249 256 266 274 281 286 291 294 296 298 300 300 300 301 301 300 298 297 295 292 291 289 288 287 285 284 283 283 282 283 282 281 281 279 277 276 277 276 277 277
239 242 246 247 247 248 250 251 253 255 260 267 273 278 283 286 288 290 293 294 295 296 298 298 298 298 297 296 294 291 290 288 287 286 285 284 284 284 283 283 283 283 283 282 279 278 277 276 276
237 238 242 245 247 250 253 257 258 259 262 266 271 275 278 281 282 284 286 288 290 292 294 295 295 296 297 297 294 292 290 289 288 287 286 285 285 285 286 286 286 286 285 284 282 280 279 278 278
237 237 238 243 245 249 252 255 260 262 264 266 269 272 274 277 278 279 281 283 286 289 291 292 295 296 298 297 296 294 292 290 289 288 288 289 289 289 290 290 289 288 286 285 284 283 281 280 279
239 237 237 244 244 247 249 251 260 263 264 266 268 270 272 273 274 275 277 280 283 286 289 291 295 297 297 298 298 295 292 291 291 290 292 293 294 295 295 295 293 291 289 286 284 282 281 280 279
239 238 241 244 247 248 250 254 259 262 263 265 268 269 270 270 271 272 275 278 281 284 287 289 294 295 295 296 296 294 293 292 292 293 295 296 297 297 298 298 297 295 292 289 285 282 280 279 278
245 243 245 248 251 252 253 256 260 263 266 268 269 269 269 268 269 271 274 276 279 282 285 288 290 291 292 292 293 294 293 293 293 294 296 299 301 303 304 304 302 299 296 292 287 284 281 279 277
249 248 250 254 254 255 257 260 264 267 268 269 269 267 266 267 268 270 272 275 277 280 283 285 286 288 289 289 291 292 292 291 292 295 299 303 306 310 312 312 310 307 303 297 291 286 281 278 277
260 254 255 258 262 265 266 270 273 270 270 270 269 269 268 268 269 270 271 273 274 277 280 283 284 286 287 289 290 290 289 289 291 294 298 300 303 307 310 314 316 314 311 305 298 291 285 280 276
277 269 269 272 274 273 275 273 273 276 273 271 270 269 268 267 267 268 269 272 273 276 278 280 282 285 286 288 288 287 287 286 288 289 292 295 297 302 307 312 317 318 316 311 305 297 291 284 278
272 278 281 283 284 282 282 277 269 275 274 273 273 272 270 269 268 268 270 272 275 277 278 281 284 286 286 286 284 284 284 284 285 286 288 289 292 296 301 307 312 315 317 315 311 303 296 289 282
288 292 298 303 302 294 282 277 265 277 281 279 279 278 276 275 274 273 275 276 277 279 281 283 285 286 285 284 283 283 283 283 283 284 285 287 289 293 297 303 308 312 316 318 315 309 302 294 287
300 304 310 308 301 289 290 286 271 285 285 285 285 282 279 277 276 275 276 277 278 280 281 282 283 284 283 282 282 282 283 282 282 283 283 285 288 291 295 301 305 310 314 318 317 312 307 300 292
297 294 288 282 278 280 294 291 288 289 290 289 287 284 280 277 277 277 276 276 277 278 278 278 278 279 280 280 281 281 282 282 282 282 284 285 287 289 291 297 302 307 312 316 317 314 310 305 297
304 295 288 286 290 290 283 286 290 289 290 289 287 284 281 280 280 279 277 276 276 276 275 275 275 276 277 277 278 279 279 280 280 282 284 285 286 287 289 293 298 304 309 314 316 315 312 309 302
308 303 298 293 289 285 285 290 288 292 288 286 284 282 281 280 280 280 279 278 277 276 275 274 274 274 275 276 277 278 278 280 281 282 283 284 285 286 288 291 294 300 305 311 314 315 314 310 305
313 309 304 297 293 291 287 280 286 290 287 285 283 282 281 280 279 279 278 277 277 276 275 275 274 274 274 275 276 277 278 280 281 282 282 283 283 284 285 288 291 295 301 306 311 313 314 311 307
316 314 310 305 301 299 298 292 297 293 291 289 287 285 283 281 280 280 279 279 278 277 276 276 275 274 274 274 275 276 277 279 280 280 280 280 280 281 282 284 287 291 296 301 306 310 312 311 308
Height
5933 5933 5933 5935 5936 5937 5936 5936 5935 5934 5933 5933 5932 5931 5931 5932 5933 5935 5933 5931 5931 5930 5929 5929 5929 5929 5928 5927 5926 5925 5923 5922 5920 5919 5918 5917 5916 5915 5914 5913 5912 5911 5910 5909 5908 5907 5905 5904 5903
5934 5934 5935 5936 5937 5938 5937 5937 5936 5935 5935 5934 5933 5932 5932 5932 5932 5933 5932 5931 5931 5931 5930 5930 5929 5929 5928 5927 5926 5925 5923 5922 5920 5919 5918 5917 5916 5915 5914 5914 5913 5912 5911 5909 5908 5907 5906 5904 5903
5934 5934 5936 5937 5938 5938 5937 5937 5936 5935 5935 5934 5934 5933 5933 5933 5932 5932 5932 5932 5931 5931 5930 5930 5929 5929 5928 5927 5926 5924 5923 5922 5920 5919 5918 5917 5916 5915 5914 5913 5913 5912 5911 5909 5908 5907 5906 5904 5903
5934 5935 5937 5938 5937 5937 5937 5936 5936 5935 5935 5934 5934 5933 5933 5933 5932 5932 5932 5931 5930 5930 5929 5929 5929 5928 5927 5926 5925 5924 5922 5921 5920 5918 5917 5916 5915 5915 5914 5913 5912 5911 5910 5909 5908 5906 5905 5904 5902
5933 5935 5937 5938 5937 5936 5936 5936 5935 5935 5934 5934 5933 5932 5932 5932 5931 5931 5931 5930 5930 5929 5928 5928 5927 5927 5926 5925 5924 5922 5921 5920 5919 5918 5917 5915 5914 5913 5912 5911 5911 5910 5909 5908 5906 5905 5904 5903 5902
5933 5935 5937 5937 5936 5936 5936 5935 5935 5934 5934 5933 5932 5932 5931 5931 5930 5930 5930 5929 5929 5928 5927 5927 5926 5925 5925 5924 5922 5921 5920 5919 5918 5916 5915 5914 5913 5912 5911 5910 5909 5908 5907 5906 5905 5903 5902 5901 5900
5932 5933 5935 5935 5935 5935 5936 5935 5935 5934 5933 5933 5932 5931 5930 5930 5929 5929 5929 5928 5928 5927 5926 5925 5925 5924 5923 5922 5921 5919 5918 5917 5916 5914 5913 5912 5911 5910 5908 5907 5906 5905 5904 5903 5902 5901 5900 5899 5898
5928 5931 5932 5933 5934 5934 5934 5934 5934 5933 5932 5932 5931 5930 5930 5929 5928 5928 5927 5926 5926 5925 5924 5924 5923 5922 5920 5919 5918 5917 5916 5914 5913 5912 5910 5909 5908 5906 5905 5904 5903 5902 5901 5900 5899 5898 5897 5896 5895
5926 5930 5930 5930 5931 5932 5932 5933 5933 5932 5932 5931 5930 5930 5929 5928 5927 5926 5925 5924 5924 5923 5922 5921 5920 5919 5917 5916 5915 5913 5912 5911 5909 5908 5907 5905 5903 5902 5901 5900 5899 5898 5897 5896 5895 5894 5893 5892 5891
5923 5926 5927 5927 5928 5929 5930 5931 5931 5931 5931 5930 5929 5928 5927 5926 5925 5924 5923 5922 5921 5920 5919 5918 5916 5915 5913 5912 5910 5909 5908 5906 5904 5903 5902 5900 5899 5897 5895 5894 5893 5892 5891 5890 5889 5888 5887 5887 5886
5919 5921 5921 5923 5924 5926 5927 5928 5929 5929 5929 5928 5927 5926 5925 5924 5922 5921 5920 5919 5918 5917 5915 5914 5912 5910 5909 5907 5905 5903 5902 5900 5899 5897 5896 5894 5893 5891 5890 5889 5887 5886 5885 5884 5883 5882 5881 5880 5880
5915 5916 5917 5918 5920 5922 5923 5925 5926 5926 5926 5926 5925 5924 5922 5921 5919 5918 5917 5915 5914 5912 5911 5909 5908 5906 5904 5901 5899 5898 5896 5894 5893 5891 5889 5888 5887 5885 5884 5883 5881 5880 5878 5877 5875 5875 5874 5873 5873
5910 5911 5912 5914 5916 5917 5919 5921 5922 5922 5922 5922 5922 5921 5919 5918 5916 5914 5913 5911 5909 5907 5906 5904 5902 5900 5898 5896 5894 5891 5889 5888 5886 5884 5882 5881 5880 5878 5877 5876 5874 5873 5871 5869 5868 5867 5866 5865 5865
5905 5906 5908 5909 5911 5913 5915 5916 5917 5918 5918 5918 5918 5917 5916 5914 5912 5910 5909 5907 5904 5902 5900 5898 5896 5894 5892 5890 5888 5885 5883 5881 5879 5877 5875 5874 5872 5871 5869 5868 5867 5866 5863 5862 5860 5859 5857 5856 5856
5900 5902 5904 5904 5906 5908 5911 5912 5911 5912 5913 5913 5913 5912 5911 5909 5908 5906 5904 5902 5900 5897 5895 5892 5890 5888 5886 5883 5881 5879 5877 5875 5872 5870 5868 5867 5865 5863 5862 5861 5860 5858 5856 5854 5853 5851 5849 5848 5847
5895 5898 5900 5899 5901 5903 5907 5908 5905 5906 5907 5908 5908 5907 5906 5904 5902 5900 5898 5896 5894 5891 5889 5886 5884 5882 5879 5877 5874 5872 5870 5868 5865 5863 5862 5860 5858 5856 5855 5853 5852 5850 5848 5846 5845 5843 5841 5840 5839
5890 5893 5894 5893 5896 5898 5901 5901 5898 5900 5901 5901 5901 5900 5899 5898 5896 5894 5892 5890 5888 5885 5883 5880 5877 5875 5872 5870 5867 5865 5863 5861 5859 5857 5855 5853 5851 5849 5847 5846 5844 5842 5840 5838 5836 5834 5832 5831 5829
5884 5886 5887 5888 5889 5892 5894 5893 5892 5893 5894 5894 5894 5893 5892 5891 5890 5888 5886 5884 5882 5879 5876 5873 5870 5867 5865 5863 5861 5858 5856 5854 5852 5851 5849 5847 5845 5843 5841 5839 5837 5834 5832 5829 5827 5825 5823 5821 5820
5878 5881 5882 5881 5883 5886 5886 5886 5885 5885 5886 5886 5886 5886 5885 5884 5883 5881 5879 5877 5874 5872 5869 5866 5863 5861 5858 5856 5854 5852 5850 5848 5846 5844 5843 5841 5839 5837 5835 5832 5829 5827 5824 5821 5818 5816 5814 5812 5810
5874 5876 5877 5876 5876 5878 5879 5879 5878 5878 5878 5878 5878 5878 5878 5877 5876 5874 5872 5869 5866 5864 5861 5858 5855 5853 5851 5849 5847 5845 5843 5842 5840 5838 5837 5835 5833 5831 5828 5825 5822 5819 5816 5813 5810 5807 5804 5803 5801
5871 5873 5872 5871 5871 5872 5873 5874 5872 5870 5871 5870 5870 5870 5870 5869 5868 5866 5863 5860 5857 5854 5853 5850 5847 5845 5843 5842 5840 5838 5837 5836 5834 5832 5830 5829 5826 5824 5822 5819 5815 5811 5808 5804 5801 5797 5795 5793 5792
5870 5867 5867 5867 5868 5869 5868 5869 5868 5863 5863 5862 5862 5862 5862 5861 5859 5857 5854 5851 5848 5846 5844 5842 5840 5838 5836 5835 5833 5831 5830 5829 5828 5826 5824 5822 5819 5817 5814 5811 5808 5804 5800 5796 5792 5788 5785 5783 5782
5865 5863 5863 5863 5862 5863 5862 5863 5864 5856 5856 5855 5854 5854 5854 5853 5851 5848 5845 5842 5840 5839 5836 5835 5833 5831 5829 5827 5826 5825 5824 5822 5821 5819 5817 5815 5812 5810 5807 5804 5800 5797 5793 5788 5784 5779 5776 5773 5771
5861 5861 5860 5859 5859 5860 5858 5858 5858 5852 5850 5849 5848 5847 5846 5845 5843 5841 5839 5837 5834 5832 5829 5827 5825 5824 5822 5821 5819 5818 5816 5815 5814 5812 5810 5808 5805 5802 5800 5796 5793 5789 5785 5780 5775 5771 5767 5763 5760
5859 5860 5860 5861 5861 5859 5854 5853 5851 5848 5846 5845 5843 5842 5840 5839 5837 5835 5833 5830 5828 5825 5822 5820 5818 5816 5815 5813 5812 5810 5809 5807 5805 5803 5802 5799 5797 5794 5792 5788 5785 5781 5777 5772 5767 5763 5759 5755 5751
5857 5857 5858 5858 5858 5856 5852 5849 5846 5844 5842 5840 5838 5836 5835 5833 5831 5829 5826 5823 5821 5818 5815 5813 5810 5808 5806 5805 5803 5802 5800 5798 5796 5794 5792 5790 5788 5786 5783 5780 5777 5773 5769 5765 5760 5755 5751 5746 5743
5854 5854 5853 5852 5851 5850 5850 5845 5841 5839 5837 5835 5833 5831 5828 5826 5824 5821 5818 5816 5813 5810 5807 5804 5801 5799 5797 5795 5793 5792 5790 5788 5786 5784 5782 5780 5778 5776 5774 5771 5768 5765 5761 5757 5752 5748 5743 5738 5734
5853 5851 5850 5849 5847 5847 5846 5843 5839 5835 5832 5829 5826 5823 5821 5818 5815 5812 5809 5806 5802 5799 5796 5793 5791 5788 5785 5783 5781 5780 5778 5776 5774 5773 5771 5769 5768 5766 5764 5761 5759 5756 5753 5749 5745 5740 5736 5731 5727
5850 5849 5846 5845 5843 5841 5840 5841 5833 5830 5826 5823 5819 5816 5812 5808 5805 5801 5798 5794 5791 5787 5784 5781 5778 5775 5772 5770 5767 5766 5764 5763 5761 5760 5758 5757 5756 5755 5753 5751 5749 5746 5744 5740 5737 5733 5728 5724 5720
5847 5845 5843 5841 5838 5835 5833 5833 5827 5822 5818 5815 5811 5806 5802 5798 5794 5790 5786 5781 5777 5774 5770 5766 5763 5760 5757 5754 5751 5749 5748 5747 5746 5745 5745 5744 5743 5743 5742 5740 5739 5737 5734 5732 5729 5725 5721 5717 5713